| time (UTC) | temp C | wind direction | speed KPH | gust KPH | rain 1hr cm | rain 24hr cm | rain mn cm | humidity % | barometer mb |
| 20260904131543 | 10 | 151 | 1.6 | 8.0 | 0.00 | 0.00 | 0.00 | 83 | 1011.9 |
| 20260904130040 | 9 | 151 | 1.6 | 4.8 | 0.00 | 0.00 | 0.00 | 83 | 1011.9 |
| 20260904124539 | 10 | 151 | 0.0 | 3.2 | 0.00 | 0.00 | 0.00 | 83 | 1011.7 |
| 20260904123042 | 10 | 151 | 1.6 | 4.8 | 0.00 | 0.00 | 0.00 | 83 | 1011.7 |
| 20260904121536 | 10 | 151 | 0.0 | 4.8 | 0.00 | 0.00 | 0.00 | 83 | 1011.5 |
| 20260904120046 | 10 | 0 | 0.0 | 0.0 | 0.00 | 0.00 | 0.00 | 82 | 1011.5 |
| 20260904114538 | 10 | 0 | 1.6 | 8.0 | 0.00 | 0.00 | 0.00 | 83 | 1011.2 |
| 20260904113039 | 10 | 0 | 0.0 | 1.6 | 0.00 | 0.00 | 0.00 | 82 | 1011.0 |
| 20260904111536 | 10 | 0 | 0.0 | 4.8 | 0.00 | 0.00 | 0.00 | 82 | 1010.8 |
| 20260904110039 | 10 | 0 | 0.0 | 1.6 | 0.00 | 0.00 | 0.00 | 81 | 1010.7 |
| 20260904104540 | 10 | 0 | 1.6 | 4.8 | 0.00 | 0.00 | 0.00 | 80 | 1010.6 |
| 20260904103042 | 11 | 151 | 1.6 | 4.8 | 0.00 | 0.00 | 0.00 | 81 | 1010.6 |
| 20260904101540 | 11 | 0 | 0.0 | 0.0 | 0.00 | 0.00 | 0.00 | 80 | 1010.4 |
| 20260904100035 | 11 | 0 | 0.0 | 3.2 | 0.00 | 0.00 | 0.00 | 79 | 1010.1 |
| 20260904094537 | 11 | 0 | 0.0 | 3.2 | 0.00 | 0.00 | 0.00 | 79 | 1009.9 |
| 20260904093037 | 11 | 0 | 0.0 | 4.8 | 0.00 | 0.00 | 0.00 | 79 | 1009.7 |
| 20260904091539 | 11 | 151 | 1.6 | 4.8 | 0.00 | 0.00 | 0.00 | 79 | 1009.6 |
| 20260904090035 | 11 | 151 | 1.6 | 8.0 | 0.00 | 0.00 | 0.00 | 80 | 1009.6 |
| 20260904084543 | 11 | 151 | 1.6 | 4.8 | 0.00 | 0.00 | 0.00 | 79 | 1009.8 |
| 20260904083041 | 11 | 0 | 0.0 | 3.2 | 0.00 | 0.00 | 0.00 | 79 | 1009.6 |
| 20260904081539 | 11 | 0 | 0.0 | 1.6 | 0.00 | 0.00 | 0.00 | 77 | 1009.6 |
| 20260904080055 | 12 | 0 | 0.0 | 3.2 | 0.00 | 0.00 | 0.00 | 77 | 1009.6 |
| 20260904074538 | 12 | 0 | 0.0 | 4.8 | 0.00 | 0.00 | 0.00 | 77 | 1009.7 |
| 20260904073037 | 12 | 0 | 0.0 | 4.8 | 0.00 | 0.00 | 0.00 | 75 | 1009.6 |
| 20260904071541 | 13 | 0 | 0.0 | 4.8 | 0.00 | 0.00 | 0.00 | 74 | 1009.7 |
| 20260904070046 | 13 | 0 | 0.0 | 4.8 | 0.00 | 0.00 | 0.00 | 72 | 1009.7 |
| 20260904064534 | 13 | 151 | 1.6 | 4.8 | 0.00 | 0.00 | 0.00 | 72 | 1009.8 |
| 20260904063047 | 13 | 151 | 3.2 | 8.0 | 0.00 | 0.00 | 0.00 | 72 | 1009.7 |
| 20260904061539 | 13 | 151 | 1.6 | 3.2 | 0.00 | 0.00 | 0.00 | 73 | 1009.5 |
| 20260904060046 | 13 | 0 | 0.0 | 1.6 | 0.00 | 0.00 | 0.00 | 73 | 1009.4 |
| 20260904054546 | 12 | 0 | 0.0 | 8.0 | 0.00 | 0.00 | 0.00 | 74 | 1009.4 |
| 20260904053056 | 13 | 151 | 4.8 | 11.3 | 0.00 | 0.00 | 0.00 | 72 | 1009.2 |
| 20260904051543 | 13 | 152 | 8.0 | 16.1 | 0.00 | 0.00 | 0.00 | 70 | 1009.2 |
| 20260904050037 | 14 | 145 | 11.3 | 22.5 | 0.00 | 0.00 | 0.00 | 69 | 1009.2 |
| 20260904044542 | 15 | 140 | 14.5 | 24.1 | 0.00 | 0.00 | 0.00 | 68 | 1008.9 |
| 20260904043052 | 15 | 155 | 3.2 | 9.7 | 0.00 | 0.00 | 0.00 | 69 | 1008.8 |
| 20260904041540 | 15 | 0 | 0.0 | 0.0 | 0.00 | 0.00 | 0.00 | 69 | 1008.5 |
| 20260904040042 | 15 | 0 | 0.0 | 3.2 | 0.00 | 0.00 | 0.00 | 70 | 1008.6 |
| 20260904034541 | 15 | 0 | 0.0 | 4.8 | 0.00 | 0.00 | 0.00 | 72 | 1008.5 |
| 20260904033040 | 15 | 0 | 1.6 | 8.0 | 0.00 | 0.00 | 0.00 | 70 | 1008.5 |
| 20260904031538 | 15 | 0 | 0.0 | 8.0 | 0.00 | 0.00 | 0.00 | 70 | 1008.5 |
| 20260904030055 | 16 | 155 | 3.2 | 9.7 | 0.00 | 0.00 | 0.00 | 69 | 1008.3 |
| 20260904024543 | 16 | 155 | 4.8 | 8.0 | 0.00 | 0.03 | 0.00 | 67 | 1008.1 |
| 20260904023042 | 16 | 0 | 0.0 | 0.0 | 0.00 | 0.03 | 0.00 | 68 | 1008.0 |
| 20260904021550 | 17 | 0 | 0.0 | 9.7 | 0.00 | 0.03 | 0.00 | 67 | 1008.0 |
| 20260904020036 | 17 | 155 | 1.6 | 4.8 | 0.00 | 0.03 | 0.00 | 69 | 1008.2 |
| 20260904014542 | 17 | 155 | 1.6 | 6.4 | 0.00 | 0.03 | 0.00 | 67 | 1008.3 |
| 20260904013037 | 17 | 0 | 3.2 | 8.0 | 0.00 | 0.03 | 0.00 | 66 | 1008.2 |
| 20260904011542 | 17 | 155 | 3.2 | 8.0 | 0.00 | 0.03 | 0.00 | 66 | 1008.2 |
| 20260904010036 | 18 | 155 | 3.2 | 9.7 | 0.00 | 0.03 | 0.00 | 60 | 1008.3 |
| 20260904004538 | 18 | 155 | 6.4 | 12.9 | 0.00 | 0.03 | 0.00 | 56 | 1008.4 |
| 20260904003037 | 18 | 155 | 8.0 | 14.5 | 0.00 | 0.03 | 0.00 | 56 | 1008.5 |
| 20260904001537 | 18 | 156 | 8.0 | 14.5 | 0.00 | 0.03 | 0.00 | 56 | 1008.6 |
| 20260904000038 | 18 | 163 | 8.0 | 16.1 | 0.00 | 0.03 | 0.00 | 54 | 1008.7 |
| 20260903234540 | 19 | 167 | 9.7 | 17.7 | 0.00 | 0.03 | 0.00 | 53 | 1008.7 |
| 20260903233039 | 19 | 180 | 8.0 | 12.9 | 0.00 | 0.03 | 0.00 | 53 | 1008.7 |
| 20260903231545 | 19 | 191 | 4.8 | 12.9 | 0.00 | 0.03 | 0.00 | 52 | 1008.9 |
| 20260903230041 | 20 | 188 | 11.3 | 19.3 | 0.00 | 0.03 | 0.00 | 51 | 1009.0 |
| 20260903224539 | 20 | 149 | 11.3 | 17.7 | 0.00 | 0.03 | 0.00 | 48 | 1009.2 |
| 20260903223040 | 18 | 205 | 9.7 | 19.3 | 0.00 | 0.03 | 0.00 | 53 | 1009.5 |
| 20260903221541 | 18 | 200 | 11.3 | 17.7 | 0.00 | 0.03 | 0.00 | 57 | 1009.3 |
| 20260903220044 | 18 | 171 | 8.0 | 19.3 | 0.00 | 0.03 | 0.00 | 57 | 1009.4 |
| 20260903214537 | 18 | 196 | 11.3 | 22.5 | 0.00 | 0.03 | 0.00 | 52 | 1009.4 |
| 20260903213039 | 18 | 186 | 8.0 | 19.3 | 0.00 | 0.03 | 0.00 | 58 | 1009.7 |
| 20260903211544 | 18 | 155 | 11.3 | 17.7 | 0.00 | 0.03 | 0.00 | 52 | 1009.8 |
| 20260903210052 | 18 | 174 | 9.7 | 14.5 | 0.00 | 0.03 | 0.00 | 55 | 1009.8 |
| 20260903204545 | 18 | 161 | 9.7 | 22.5 | 0.00 | 0.03 | 0.00 | 56 | 1009.9 |
| 20260903203036 | 18 | 171 | 11.3 | 19.3 | 0.00 | 0.03 | 0.00 | 60 | 1010.0 |
| 20260903201537 | 18 | 177 | 9.7 | 16.1 | 0.00 | 0.03 | 0.00 | 59 | 1009.9 |
| 20260903200037 | 17 | 184 | 12.9 | 19.3 | 0.00 | 0.03 | 0.00 | 59 | 1010.1 |
| 20260903194538 | 17 | 178 | 12.9 | 19.3 | 0.00 | 0.03 | 0.00 | 59 | 1010.3 |
| 20260903193036 | 17 | 184 | 9.7 | 17.7 | 0.00 | 0.03 | 0.00 | 61 | 1010.4 |
| 20260903191537 | 17 | 186 | 11.3 | 17.7 | 0.00 | 0.03 | 0.00 | 62 | 1010.5 |
| 20260903190041 | 17 | 220 | 6.4 | 14.5 | 0.00 | 0.03 | 0.00 | 61 | 1010.7 |
| 20260903184544 | 17 | 238 | 3.2 | 14.5 | 0.00 | 0.03 | 0.00 | 61 | 1011.1 |
| 20260903183045 | 17 | 215 | 6.4 | 12.9 | 0.00 | 0.03 | 0.00 | 66 | 1011.1 |
| 20260903181541 | 16 | 216 | 9.7 | 17.7 | 0.00 | 0.03 | 0.00 | 64 | 1011.1 |
| 20260903180041 | 16 | 242 | 11.3 | 20.9 | 0.00 | 0.03 | 0.00 | 70 | 1011.1 |
| 20260903174540 | 16 | 192 | 11.3 | 20.9 | 0.00 | 0.03 | 0.00 | 68 | 1011.0 |
| 20260903173039 | 15 | 202 | 8.0 | 14.5 | 0.00 | 0.03 | 0.00 | 75 | 1011.1 |
| 20260903171545 | 15 | 200 | 4.8 | 12.9 | 0.00 | 0.03 | 0.00 | 77 | 1011.1 |
| 20260903170106 | 15 | 201 | 9.7 | 12.9 | 0.00 | 0.03 | 0.00 | 77 | 1011.0 |
| 20260903164544 | 14 | 192 | 9.7 | 14.5 | 0.00 | 0.03 | 0.00 | 78 | 1011.0 |
| 20260903163044 | 14 | 190 | 6.4 | 11.3 | 0.00 | 0.03 | 0.00 | 81 | 1011.2 |
| 20260903161539 | 13 | 188 | 9.7 | 14.5 | 0.00 | 0.03 | 0.00 | 82 | 1010.9 |
| 20260903160040 | 13 | 196 | 4.8 | 11.3 | 0.00 | 0.03 | 0.00 | 85 | 1010.9 |
| 20260903154544 | 12 | 195 | 4.8 | 8.0 | 0.00 | 0.03 | 0.00 | 87 | 1011.1 |
| 20260903153044 | 12 | 195 | 3.2 | 9.7 | 0.00 | 0.03 | 0.00 | 87 | 1011.0 |
| 20260903151558 | 12 | 195 | 6.4 | 11.3 | 0.00 | 0.03 | 0.00 | 88 | 1011.0 |
| 20260903150047 | 12 | 198 | 6.4 | 12.9 | 0.00 | 0.03 | 0.00 | 90 | 1011.0 |
| 20260903144538 | 11 | 197 | 6.4 | 11.3 | 0.00 | 0.03 | 0.00 | 91 | 1010.9 |
| 20260903143040 | 11 | 197 | 0.0 | 4.8 | 0.00 | 0.03 | 0.00 | 92 | 1010.7 |
| 20260903141542 | 10 | 0 | 0.0 | 3.2 | 0.00 | 0.03 | 0.00 | 92 | 1010.7 |
| 20260903140039 | 10 | 0 | 1.6 | 4.8 | 0.00 | 0.03 | 0.00 | 91 | 1010.5 |
| 20260903134537 | 10 | 197 | 4.8 | 6.4 | 0.00 | 0.03 | 0.00 | 92 | 1010.5 |
| 20260903133039 | 10 | 197 | 1.6 | 8.0 | 0.00 | 0.03 | 0.00 | 91 | 1010.3 |